[[{"header":{"parameterUnit":"m.s-1","parameterCategory":1,"la1":30.2991,"la2":30.254,"lo1":-89.0895,"lo2":-89.0444,"dy":0.0017,"dx":0.0017,"nx":28,"ny":28,"refTime":"2024-06-03T03:00:00:Z","depth":0,"parameterNumber":2,"parameterNumberName":"U-component_of_WINDS"},"data":[0,0,0,0,0,0,0,0,0,0,0,0,0,0,0,0,0,0,0,0,0,0,0,0,0,0,0,0,0,0,0,0,0,0,0,0,0,0,0,0,0,0,0,0,0,0,0,0,0,0,0,0,0,0,0,0,0,0,-1.936,-1.9358,0,-1.9176,-1.9174,-1.9172,-1.8999,-1.8997,-1.8995,-1.8993,-1.8795,-1.8792,-1.8789,0,0,0,0,0,0,0,0,0,0,0,0,0,-1.9553,-1.9551,-1.936,-1.9358,-1.9356,-1.9177,-1.9174,-1.9172,-1.8999,-1.8997,-1.8994,-1.8992,-1.8796,-1.8793,-1.8789,0,0,0,0,0,0,0,0,0,0,0,0,0,-1.943,-1.955,-1.9361,-1.9248,-1.9237,-1.9177,-1.9174,-1.9171,-1.9,-1.8997,-1.8994,-1.8991,-1.8798,-1.8793,-1.8788,-1.8822,0,0,-1.8773,-1.8771,0,0,0,0,0,0,0,0,-1.9437,-1.9423,-1.9267,-1.9256,-1.9243,-1.9108,-1.917,-1.9054,-1.9001,-1.909,-1.8993,-1.8989,-1.8901,-1.8888,-1.886,-1.8813,-1.8804,-1.8773,-1.877,-1.8768,-1.8766,0,0,0,0,0,0,0,-1.9446,-1.9429,-1.9287,-1.9265,-1.925,-1.9204,-1.9183,-1.9147,-1.9015,-1.9082,-1.9069,-1.905,-1.8894,-1.8865,-1.8854,-1.8801,-1.8773,-1.8768,-1.8765,-1.8764,-1.8771,-1.8774,0,0,0,0,0,0,-1.9473,-1.9438,-1.9293,-1.9282,-1.9334,-1.9204,-1.918,-1.9154,-1.9015,-1.8991,-1.9053,-1.9042,-1.8875,-1.886,-1.8846,-1.8876,-1.8768,-1.8763,-1.876,-1.8768,-1.8772,-1.8775,0,0,0,0,0,0,-1.9477,-1.9461,-1.93,-1.9356,-1.9332,-1.9204,-1.9176,-1.9152,-1.9123,-1.8994,-1.8968,-1.9048,-1.8872,-1.8853,-1.883,-1.8867,-1.8761,-1.8756,-1.8764,-1.8769,-1.8774,-1.8938,0,0,0,0,0,0,-1.9484,-1.9464,-1.9478,-1.9358,-1.933,-1.929,-1.9178,-1.9151,-1.9116,-1.9101,-1.8983,-1.896,-1.8868,-1.8838,-1.8825,-1.8858,-1.8753,-1.876,-1.8767,-1.8772,-1.8928,-1.8948,-1.8964,0,0,0,0,0,-1.9491,-1.953,-1.948,-1.9463,-1.9345,-1.9293,-1.9276,-1.9173,-1.912,-1.9131,-1.9048,-1.8963,-1.8866,-1.8837,-1.8821,-1.8854,-1.8758,-1.8765,-1.8772,-1.892,-1.8944,-1.8964,0,0,0,0,0,0,-1.9654,-1.9512,-1.9455,-1.9456,-1.9389,-1.9264,-1.9275,-1.9201,-1.9144,-1.9132,-1.9003,-1.8977,-1.8968,-1.8908,-1.8879,-1.8878,-1.88,-1.8804,-1.8918,-1.8939,-1.8957,-1.8971,-1.8748,0,0,0,0,0,-1.9691,-1.9663,-1.9539,-1.9552,-1.9521,-1.9405,-1.9378,-1.9304,-1.9227,-1.9197,-1.9112,-1.9038,-1.899,-1.8961,-1.891,-1.8919,-1.8889,-1.8933,-1.8951,-1.8966,-1.8971,-1.897,-1.8988,-1.8799,-1.8798,-1.8798,0,0,-1.9765,-1.9684,-1.9674,-1.9583,-1.9521,-1.9493,-1.9382,-1.9356,-1.9333,-1.9192,-1.9166,-1.9101,-1.9009,-1.9003,-1.8995,-1.8952,-1.9017,-1.8975,-1.8988,-1.8984,-1.8979,-1.8997,-1.9013,-1.8803,-1.8802,-1.8802,0,0,-1.9886,-1.9823,-1.9827,-1.9768,-1.9678,-1.96,-1.9602,-1.9489,-1.9441,-1.9413,-1.9307,-1.9275,-1.9196,-1.9136,-1.9095,-1.9194,-1.9113,-1.918,-1.9272,-1.9273,-1.9288,-1.9301,-1.9335,-1.9349,-1.9185,-1.9186,-1.9186,0,-1.9989,-1.9945,-1.9837,-1.9819,-1.9781,-1.9655,-1.9657,-1.9604,-1.9501,-1.9477,-1.9431,-1.9329,-1.9259,-1.9236,-1.926,-1.9231,-1.9226,-1.9193,-1.9295,-1.9307,-1.9317,-1.9348,-1.9362,-1.9195,-1.9194,-1.9193,-1.9192,0,-2.0076,-2.0047,-2.006,-1.9968,-1.9931,-1.9923,-1.9811,-1.9787,-1.9716,-1.9643,-1.9615,-1.9526,-1.9455,-1.9444,-1.9373,-1.941,-1.9386,-1.932,-1.9238,-1.9345,-1.9373,-1.9384,-1.9207,-1.9204,-1.9201,-1.9199,0,0,-2.0294,-2.0143,-2.0149,-2.0106,-1.9997,-1.9971,-1.9956,-1.989,-1.9871,-1.9804,-1.9787,-1.9723,-1.9661,-1.9615,-1.9536,-1.9537,-1.962,-1.9469,-1.9465,-1.95,-1.9654,-1.9705,-1.9721,-1.9566,-1.9568,-1.9569,-1.9661,0,-2.0396,-2.0366,-2.0268,-2.0266,-2.0237,-2.0117,-2.0104,-2.0034,-1.9965,-1.9928,-1.9849,-1.9807,-1.9728,-1.97,-1.9695,-1.9611,-1.9649,-1.9603,-1.9546,-1.9546,-1.9573,-1.9735,-1.9788,-1.988,-1.9671,-1.9673,-1.9674,0,-2.0512,-2.0456,-2.0453,-2.0346,-2.033,-2.032,-2.0251,-2.0218,-2.0136,-2.0085,-2.0035,-1.9948,-1.9922,-1.9848,-1.9809,-1.9781,-1.9751,-1.9706,-1.9707,-1.9697,-1.9617,-1.9729,-1.9906,-1.992,-1.969,-1.9689,-1.9688,0,-2.0671,-2.0595,-2.0582,-2.0549,-2.0424,-2.042,-2.0367,-2.0282,-2.0248,-2.0186,-2.0163,-2.0098,-2.0063,-2.0013,-1.991,-1.9866,-1.9884,-1.98,-1.9839,-1.9842,-1.9847,-1.9848,-2.0022,-1.983,-1.983,-1.9829,-1.9829,0,-2.0796,-2.0798,-2.0653,-2.0645,-2.0644,-2.053,-2.053,-2.0465,-2.0391,-2.0366,-2.0257,-2.0236,-2.0102,-2.0064,-1.9983,-1.9963,-1.9947,-1.9904,-1.9882,-1.9914,-1.992,-1.9892,-1.9883,-1.9833,-1.9832,-1.9831,-1.9831,0,-2.0973,-2.0876,-2.0855,-2.074,-2.071,-2.0714,-2.0613,-2.06,-2.0525,-2.0495,-2.0481,-2.0362,-2.0312,-2.0205,-2.0124,-2.007,-2.0069,-2.0031,-2.0099,-2.0085,-2.013,-2.0127,-2.0292,-2.0307,-2.0107,-2.0109,-2.0111,0,-2.1059,-2.1059,-2.0944,-2.0922,-2.0874,-2.0839,-2.0805,-2.0692,-2.0661,-2.0567,-2.0565,-2.0507,-2.0455,-2.038,-2.0284,-2.0222,-2.0181,-2.0243,-2.017,-2.0202,-2.0181,-2.0182,-2.0181,-2.0259,-2.0262,-2.0264,-2.0266,0,-2.1222,-2.1174,-2.1131,-2.1072,-2.1035,-2.0982,-2.0922,-2.0909,-2.0781,-2.0751,-2.0701,-2.0661,-2.058,-2.0523,-2.0447,-2.0388,-2.0305,-2.029,-2.0295,-2.0327,-2.0367,-2.0346,-2.0143,-2.0286,-2.0284,-2.0283,-2.0281,-2.0281,-2.1355,-2.135,-2.1269,-2.1224,-2.1168,-2.1115,-2.1097,-2.1021,-2.0978,-2.0907,-2.0841,-2.0797,-2.0713,-2.0603,-2.0549,-2.0511,-2.0469,-2.0478,-2.0479,-2.0483,-2.0497,-2.0374,-2.0496,-2.0495,-2.0495,-2.0494,-2.0493,0,-2.1512,-2.1455,-2.1415,-2.1337,-2.1302,-2.123,-2.116,-2.1134,-2.1098,-2.1028,-2.098,-2.0922,-2.0866,-2.0767,-2.0702,-2.069,-2.065,-2.0677,-2.0676,-2.0664,-2.0537,-2.0539,-2.071,-2.071,-2.071,-2.071,-2.071,-2.071,-2.159,-2.1576,-2.1519,-2.1476,-2.1416,-2.1375,-2.1341,-2.1291,-2.1235,-2.1176,-2.1131,-2.1068,-2.0985,-2.0913,-2.0858,-2.083,-2.0811,-2.085,-2.0809,-2.0693,-2.0673,-2.0653,-2.0654,-2.0847,-2.0847,-2.0938,-2.0939,-2.094]},{"header":{"parameterUnit":"m.s-1","parameterCategory":1,"la1":30.2991,"la2":30.254,"lo1":-89.0895,"lo2":-89.0444,"dy":0.0017,"dx":0.0017,"nx":28,"ny":28,"refTime":"2024-06-03T03:00:00:Z","depth":0,"parameterNumber":3,"parameterNumberName":"V-component_of_WINDS"},"data":[0,0,0,0,0,0,0,0,0,0,0,0,0,0,0,0,0,0,0,0,0,0,0,0,0,0,0,0,0,0,0,0,0,0,0,0,0,0,0,0,0,0,0,0,0,0,0,0,0,0,0,0,0,0,0,0,0,0,0.9007,0.9007,0,0.9031,0.9031,0.9032,0.9092,0.9093,0.9094,0.9096,0.9116,0.9115,0.9114,0,0,0,0,0,0,0,0,0,0,0,0,0,0.9008,0.9007,0.9007,0.9007,0.9007,0.9031,0.9031,0.9032,0.9092,0.9093,0.9095,0.9096,0.9116,0.9115,0.9114,0,0,0,0,0,0,0,0,0,0,0,0,0,0.9017,0.9007,0.9007,0.904,0.9043,0.9031,0.9031,0.9032,0.9091,0.9093,0.9095,0.9097,0.9116,0.9115,0.9114,0.907,0,0,0.9111,0.9111,0,0,0,0,0,0,0,0,0.9016,0.9017,0.9035,0.9038,0.9041,0.9061,0.9039,0.9044,0.9091,0.9073,0.9096,0.9098,0.9095,0.9096,0.9096,0.9071,0.9071,0.9111,0.911,0.911,0.911,0,0,0,0,0,0,0,0.9016,0.9016,0.9016,0.9035,0.9039,0.9053,0.9056,0.904,0.9073,0.9075,0.9079,0.9081,0.9097,0.9097,0.9097,0.9072,0.9111,0.911,0.9109,0.9109,0.9011,0.9009,0,0,0,0,0,0,0.9011,0.9015,0.9015,0.9017,0.9034,0.9051,0.9055,0.9052,0.9073,0.9078,0.908,0.9084,0.9098,0.9098,0.9098,0.9048,0.911,0.9109,0.9108,0.9013,0.9011,0.9008,0,0,0,0,0,0,0.9011,0.901,0.9014,0.9017,0.9019,0.9049,0.9046,0.9052,0.9052,0.9077,0.9083,0.9074,0.9099,0.91,0.9077,0.9049,0.9109,0.9108,0.9015,0.9012,0.9009,0.8946,0,0,0,0,0,0,0.901,0.901,0.8994,0.9017,0.9019,0.8994,0.9044,0.9051,0.905,0.9056,0.9073,0.9078,0.9101,0.9078,0.9076,0.9049,0.9107,0.9018,0.9014,0.901,0.8951,0.8942,0.8934,0,0,0,0,0,0.901,0.8974,0.8993,0.8993,0.9,0.8992,0.8993,0.9022,0.9048,0.9032,0.9048,0.9077,0.9053,0.9075,0.9073,0.9046,0.902,0.9015,0.9011,0.8955,0.8943,0.8934,0,0,0,0,0,0,0.8946,0.8978,0.8999,0.897,0.8978,0.9002,0.8983,0.9009,0.9008,0.9014,0.9048,0.9051,0.9024,0.9033,0.9057,0.9004,0.9041,0.9036,0.8999,0.8989,0.898,0.8978,0.9106,0,0,0,0,0,0.8929,0.8921,0.8949,0.892,0.8923,0.8952,0.895,0.8972,0.8981,0.8984,0.8999,0.9005,0.9,0.8995,0.899,0.8953,0.8957,0.8933,0.8924,0.8917,0.8912,0.8893,0.8882,0.8993,0.8994,0.8994,0,0,0.8892,0.8909,0.8901,0.8907,0.8917,0.8907,0.8955,0.8942,0.8934,0.8982,0.8962,0.8972,0.8982,0.8952,0.8939,0.8958,0.8882,0.8911,0.8905,0.8904,0.8887,0.8876,0.8867,0.899,0.8991,0.8991,0,0,0.8821,0.8833,0.8811,0.8819,0.8833,0.8852,0.8847,0.8867,0.8877,0.8858,0.8893,0.8884,0.8873,0.8879,0.888,0.8812,0.8838,0.8809,0.8763,0.8744,0.8735,0.8728,0.8703,0.8694,0.8804,0.8804,0.8804,0,0.8773,0.8761,0.8795,0.8781,0.8782,0.8826,0.8803,0.8809,0.882,0.8819,0.8841,0.8829,0.8838,0.881,0.8793,0.8793,0.8787,0.8807,0.8734,0.8727,0.872,0.8697,0.8688,0.88,0.8801,0.8801,0.8801,0,0.8702,0.8693,0.8673,0.8685,0.8684,0.8665,0.8695,0.869,0.8712,0.8728,0.8708,0.8721,0.8721,0.8716,0.8736,0.869,0.8702,0.8728,0.8766,0.8705,0.8684,0.8676,0.8795,0.8797,0.8798,0.8798,0,0,0.859,0.8622,0.8614,0.862,0.8638,0.8631,0.8614,0.8616,0.861,0.8616,0.8602,0.8592,0.8617,0.8619,0.864,0.8624,0.8568,0.8652,0.8653,0.8636,0.8518,0.8498,0.8487,0.8586,0.8585,0.8584,0.8518,0,0.8523,0.8497,0.8528,0.8495,0.8487,0.8529,0.8514,0.8523,0.8538,0.8533,0.8549,0.8542,0.8575,0.8577,0.8562,0.8578,0.8545,0.8583,0.8572,0.8572,0.8568,0.8476,0.8455,0.8392,0.8509,0.8508,0.8507,0,0.8441,0.8445,0.8412,0.8434,0.8431,0.8418,0.8421,0.8416,0.8427,0.8439,0.8441,0.8468,0.8452,0.8489,0.8467,0.8492,0.8489,0.8496,0.8495,0.8494,0.8535,0.8473,0.8373,0.8363,0.8494,0.8495,0.8496,0,0.8363,0.836,0.834,0.8344,0.8368,0.8357,0.8367,0.838,0.8379,0.8382,0.8381,0.8381,0.8381,0.838,0.8406,0.8431,0.838,0.8419,0.8389,0.8388,0.8376,0.8376,0.8273,0.8374,0.8374,0.8375,0.8375,0,0.8285,0.8262,0.8305,0.8293,0.8269,0.8304,0.8279,0.8292,0.8304,0.8294,0.833,0.8319,0.8354,0.8347,0.8367,0.8345,0.8345,0.8353,0.8359,0.835,0.8349,0.8348,0.8353,0.8372,0.8373,0.8373,0.8374,0,0.8193,0.822,0.8201,0.8227,0.8233,0.8214,0.8235,0.8224,0.8242,0.8229,0.8228,0.8256,0.825,0.8276,0.8273,0.8287,0.8254,0.8267,0.8251,0.8255,0.8223,0.8225,0.8115,0.8102,0.8212,0.8211,0.821,0,0.8141,0.8125,0.8149,0.8146,0.8154,0.8148,0.8148,0.8181,0.8179,0.8191,0.8178,0.8175,0.8175,0.8162,0.8181,0.818,0.8192,0.8154,0.8192,0.8184,0.8192,0.8192,0.8191,0.8146,0.8144,0.8143,0.8142,0,0.8046,0.8061,0.806,0.8063,0.8062,0.8066,0.8073,0.8068,0.8103,0.8099,0.8094,0.8094,0.8092,0.8088,0.8091,0.8099,0.8126,0.813,0.8123,0.8114,0.8105,0.8109,0.8229,0.8133,0.8134,0.8134,0.8135,0.8135,0.7972,0.796,0.7976,0.7974,0.7982,0.7988,0.7979,0.7997,0.7993,0.7996,0.8015,0.8006,0.8018,0.8024,0.803,0.8023,0.8041,0.803,0.8027,0.8024,0.8019,0.8107,0.8023,0.8024,0.8024,0.8024,0.8024,0,0.7879,0.7891,0.7889,0.7898,0.7896,0.7923,0.7932,0.7928,0.792,0.7929,0.7928,0.7922,0.7919,0.7939,0.7938,0.7928,0.794,0.7927,0.7927,0.7929,0.8003,0.8009,0.7917,0.7917,0.7917,0.7917,0.7917,0.7917,0.783,0.7812,0.7828,0.7814,0.7827,0.782,0.7822,0.7827,0.7834,0.7827,0.7825,0.7838,0.7851,0.7852,0.785,0.7855,0.7853,0.7835,0.7845,0.7913,0.7924,0.7934,0.794,0.7834,0.7834,0.7772,0.7771,0.7771]}]]